Wind_Speed
32 33 33 33 32 32 32 32 31 31 31 31 30 30 30 30 30 30 30 30 30 30 30 30 30 30 30 30 29 29 28 28 27 27 27 26 26 27 27 27 27 27 27 28 28 28 29 29 29 28 28 28 28 28 29 29 29 28 28 27 25 21 18 20 23 24 27 27 28 30 33 35 36 38 38 39 41 40 39 39 38 37 35 32 30 29 29 29
31 31 32 32 32 31 31 31 31 31 31 30 30 30 30 30 30 30 29 29 29 30 30 30 30 30 30 29 29 28 27 26 26 26 26 26 26 26 27 26 27 27 27 27 28 28 29 28 28 28 28 28 28 28 28 28 28 28 27 27 22 17 18 22 25 27 28 28 29 32 34 36 38 39 40 40 41 41 40 39 37 36 33 31 30 29 29 30
30 31 31 31 31 31 31 31 31 30 30 30 30 30 29 29 29 29 29 29 29 29 29 29 29 29 29 28 28 27 26 26 25 26 25 25 26 26 26 26 27 27 27 27 28 28 28 28 28 28 28 28 28 28 28 28 28 28 28 25 17 16 20 24 27 30 30 30 31 33 35 37 39 40 41 41 41 42 40 38 36 35 34 33 33 32 31 31
30 30 31 31 31 31 31 31 30 30 30 29 29 29 29 29 29 29 29 29 29 29 29 29 29 29 28 28 27 27 26 26 26 25 25 25 26 26 26 26 27 27 27 28 28 28 28 28 28 28 27 27 27 27 28 27 28 28 27 22 16 19 23 25 29 32 33 33 33 35 36 38 40 41 42 43 42 42 41 39 36 35 35 35 35 34 33 32
29 30 30 31 31 31 31 31 31 30 30 30 29 29 29 29 28 28 28 29 29 29 29 29 29 29 28 28 27 27 26 27 26 26 26 26 26 26 26 26 27 27 28 28 28 28 28 28 28 27 27 27 27 27 27 27 28 28 26 22 18 21 24 27 31 34 35 35 35 36 38 39 40 41 42 44 44 44 42 39 37 36 36 36 36 34 33 31
28 29 30 30 31 31 31 31 31 31 31 30 30 30 30 29 29 29 29 29 29 29 29 29 29 29 28 28 28 27 27 27 26 26 26 26 26 26 26 27 27 28 28 28 28 28 28 28 27 27 26 27 27 26 27 27 28 28 25 21 19 21 25 29 32 36 38 37 37 38 39 40 40 41 43 43 44 45 43 40 38 37 36 36 35 34 32 29
28 28 29 30 31 32 32 32 32 32 32 32 31 31 31 31 30 30 30 30 30 30 30 29 29 29 29 28 28 28 28 28 26 26 26 26 26 26 26 27 28 28 28 28 28 28 28 27 26 26 26 26 26 26 26 27 28 27 24 21 20 23 26 30 34 38 40 39 39 39 39 39 40 42 43 43 44 44 43 42 40 37 36 35 34 33 30 27
28 28 29 29 30 31 32 32 33 33 33 32 32 32 32 32 32 31 31 30 30 30 30 30 30 30 29 29 29 29 29 28 27 27 27 27 27 26 27 28 28 28 28 28 28 28 27 27 27 27 26 26 26 26 27 27 28 26 23 22 22 24 27 32 36 38 41 41 40 40 38 38 40 42 42 42 43 42 42 41 40 38 36 34 34 33 29 25
29 29 29 29 30 30 31 31 32 32 33 32 32 32 32 33 33 32 32 31 31 31 31 31 31 31 30 30 30 30 30 29 29 29 28 28 27 28 28 29 29 29 29 29 28 28 27 27 28 28 27 27 27 27 27 27 27 24 22 23 23 24 28 33 35 37 41 41 41 40 38 36 40 43 40 40 41 40 40 40 39 38 36 36 36 34 28 24
30 30 29 29 30 30 30 31 31 32 32 32 32 32 32 33 33 33 33 32 32 32 32 32 31 31 31 31 31 31 31 30 30 30 29 29 28 29 29 30 30 30 30 29 29 28 29 29 29 28 27 26 26 26 26 26 26 24 23 23 22 22 27 32 34 35 39 41 41 41 38 37 42 43 40 40 40 39 38 38 37 37 38 38 34 29 25 23
31 31 30 30 30 30 30 30 30 31 31 32 32 32 33 33 33 33 33 33 33 33 32 32 32 32 32 32 32 32 31 31 31 31 30 30 30 30 30 31 31 31 30 29 29 30 30 30 29 27 26 26 25 25 26 25 25 24 22 21 20 21 24 29 30 31 36 39 41 42 40 40 43 43 39 39 40 39 38 38 38 38 37 33 28 25 24 23
33 33 32 31 31 30 30 30 30 30 30 30 31 31 32 32 32 33 33 33 33 33 32 33 32 32 32 32 33 33 32 32 32 31 31 32 32 31 31 31 31 31 31 31 31 30 30 30 28 28 27 26 25 25 26 25 23 22 21 19 19 20 21 24 27 28 33 36 38 43 44 43 43 42 40 40 41 40 40 40 39 36 32 28 25 24 25 24
34 34 34 34 33 32 32 31 31 31 31 31 31 32 32 32 33 33 33 33 33 33 33 32 32 32 31 32 34 33 32 32 32 32 34 34 33 32 32 32 32 32 32 32 31 31 31 30 29 29 27 25 24 25 25 23 22 21 21 19 17 19 19 21 25 28 31 32 35 42 45 45 43 41 41 41 40 40 39 38 35 31 27 25 24 24 24 23
33 34 34 35 35 34 34 34 34 34 34 34 34 34 34 34 35 35 35 35 35 34 34 33 32 32 30 32 35 33 31 32 32 33 34 34 33 32 33 32 32 32 32 32 31 31 31 30 30 28 26 25 24 24 23 22 22 21 20 18 17 18 17 19 25 28 29 30 33 41 45 45 44 42 43 42 40 39 37 34 30 26 23 21 21 22 22 22
32 33 33 34 34 35 35 35 35 36 36 36 37 37 37 37 37 37 37 36 36 35 34 33 32 32 30 31 35 34 32 32 32 33 34 33 33 34 34 33 32 31 31 31 31 31 31 30 30 28 27 25 24 23 23 22 21 20 21 19 18 20 18 20 25 27 28 29 33 38 42 43 43 43 44 43 41 39 36 31 28 24 21 19 19 20 20 20
31 31 32 32 33 33 33 34 35 35 36 36 37 36 35 35 35 35 35 34 34 33 32 31 30 31 30 30 34 35 33 32 32 33 33 33 34 35 34 32 31 31 31 32 31 31 31 30 29 28 27 25 24 23 23 23 21 21 22 20 20 20 19 21 24 25 27 29 32 37 40 41 40 42 45 44 43 41 37 31 27 24 22 20 20 20 19 19
30 30 30 31 32 32 32 32 33 33 34 34 34 33 31 30 30 30 30 30 30 29 29 28 28 29 29 29 32 33 33 32 32 32 32 33 35 35 33 32 31 30 31 31 31 32 31 30 30 29 28 25 24 24 24 22 21 23 23 21 20 19 18 21 22 24 26 28 30 35 38 38 37 39 43 45 45 44 41 35 31 28 27 25 24 22 20 20
31 30 30 30 31 31 31 31 32 32 32 32 31 30 28 27 27 28 28 28 28 28 27 27 27 28 28 29 29 31 33 33 32 31 31 33 34 34 33 32 31 30 31 31 31 32 31 31 30 30 28 26 25 24 23 22 22 24 24 22 20 19 18 20 21 24 27 28 31 34 35 36 35 35 39 43 44 45 44 41 38 36 33 31 27 25 24 24
31 31 30 30 30 30 31 31 31 32 32 32 30 28 27 27 27 28 28 28 28 28 28 27 27 27 28 28 28 30 31 31 31 31 31 32 34 34 33 32 31 30 30 30 30 31 31 31 31 31 28 25 25 24 24 24 25 25 24 23 21 20 19 19 22 26 29 31 32 34 34 34 32 32 35 39 41 43 44 43 42 40 38 35 31 29 28 25
31 31 30 30 30 30 30 30 30 31 32 32 30 28 28 28 28 28 29 29 29 29 28 27 27 27 28 28 29 29 30 30 31 31 31 31 32 32 32 31 30 30 29 29 30 30 31 31 31 29 26 25 25 25 25 26 27 27 26 25 23 21 18 19 23 26 30 32 32 33 34 33 32 30 33 38 40 41 42 42 42 40 38 37 34 32 29 25
31 30 30 29 29 29 29 29 30 30 31 31 29 27 27 27 28 29 29 29 29 29 28 28 28 27 28 29 30 29 29 30 30 31 31 30 30 31 31 30 29 28 27 28 29 30 31 31 29 27 26 26 26 26 27 27 27 28 28 27 25 21 18 19 23 26 30 32 31 31 32 31 30 29 31 36 38 39 40 40 39 37 36 35 34 32 29 25
30 29 28 28 28 28 28 28 29 29 30 29 28 27 26 27 28 28 28 27 27 28 28 28 28 27 27 29 30 30 30 29 29 30 30 29 29 28 28 29 28 27 28 29 30 30 30 28 25 24 25 26 27 28 28 27 27 27 28 28 25 22 19 20 22 25 28 30 28 28 30 29 26 26 29 33 35 36 36 36 35 33 33 33 32 30 28 25
29 28 27 27 27 27 27 27 27 27 28 27 26 26 27 27 28 28 27 23 23 27 28 27 27 26 26 28 30 31 31 28 29 29 28 27 27 27 28 28 28 27 28 29 29 29 28 25 23 24 25 27 28 28 27 26 25 25 26 27 24 21 22 21 21 24 27 27 24 25 27 25 22 24 27 31 33 33 32 31 30 30 31 31 30 29 28 26
27 26 25 25 25 25 24 25 25 25 26 25 25 26 26 27 27 26 25 21 20 24 28 26 25 25 25 28 30 31 31 28 27 27 26 26 26 26 27 27 27 27 26 27 27 28 25 23 24 26 27 28 27 25 25 23 22 22 23 24 22 21 22 22 23 26 28 26 22 23 25 22 20 23 26 28 29 28 28 28 28 30 32 31 30 30 29 28
25 24 23 23 23 23 22 23 23 23 24 23 24 25 26 26 26 24 23 21 18 21 25 26 25 24 24 27 27 29 30 26 22 23 24 24 24 24 25 26 25 24 23 24 26 26 24 23 26 27 27 27 24 22 22 21 20 19 19 20 21 22 22 23 25 28 27 25 24 25 25 21 19 22 24 25 26 25 26 28 29 31 31 30 30 29 29 27
23 22 22 21 22 21 21 22 22 22 23 23 24 25 25 25 23 23 23 21 18 19 23 25 26 26 24 25 25 27 28 22 18 23 25 23 24 25 25 25 23 21 21 23 25 25 22 22 26 26 26 24 22 20 20 20 19 17 18 19 22 23 23 25 27 28 27 26 26 27 26 22 20 21 23 23 24 26 27 29 30 31 31 30 29 28 27 24
22 21 21 21 21 21 21 20 21 22 22 22 23 24 25 24 22 22 23 21 19 21 24 25 26 26 25 24 25 26 25 22 20 24 23 21 23 25 25 23 20 19 20 22 24 22 19 22 26 26 24 23 21 20 20 21 19 19 20 22 22 24 26 28 30 30 28 28 28 27 28 24 20 22 23 22 24 28 28 27 28 29 29 28 26 25 23 21
21 21 21 21 20 21 21 20 20 22 22 21 23 24 24 23 21 22 22 20 20 22 24 24 24 23 21 21 23 23 25 24 23 24 25 24 25 25 25 22 19 18 20 22 23 21 21 25 27 25 25 23 21 22 23 22 20 21 23 24 24 25 28 30 31 31 30 30 28 27 29 25 21 23 23 23 25 29 26 24 25 26 25 23 21 20 19 19
20 21 21 20 20 21 21 20 21 22 22 21 22 24 24 22 22 22 21 20 21 22 23 24 22 20 18 18 20 21 24 26 26 27 28 26 25 25 24 22 20 21 23 23 22 23 25 27 27 27 26 23 22 24 24 21 21 23 24 24 25 27 27 29 31 31 32 31 26 25 28 26 24 24 22 23 28 30 25 23 25 24 21 18 16 16 18 18
20 21 21 20 19 21 21 20 21 22 22 22 22 23 23 22 22 22 21 21 23 23 24 24 23 20 18 18 19 20 24 27 28 28 27 25 25 25 25 24 24 25 25 23 22 24 26 27 28 28 25 22 23 25 23 22 23 24 24 24 26 27 27 29 31 31 33 30 22 23 27 28 28 25 22 24 30 31 25 22 25 23 18 16 15 15 16 17
21 22 21 20 19 21 21 21 22 22 21 21 22 22 22 22 22 21 19 21 24 24 23 24 22 19 19 19 19 20 24 27 29 28 25 25 26 26 26 26 24 24 23 20 21 23 25 27 27 25 23 23 25 25 23 23 23 24 24 24 25 26 27 29 30 31 31 26 20 23 28 29 30 26 23 24 30 30 25 22 24 23 19 17 16 15 15 15
21 22 21 20 20 20 21 21 21 21 20 20 20 20 21 21 20 19 19 22 25 25 23 23 21 20 20 20 19 20 24 27 28 27 25 25 25 23 22 23 22 23 21 18 19 23 25 26 25 23 23 24 24 24 24 23 23 24 25 25 25 25 26 28 29 30 28 22 21 26 29 30 30 26 24 25 28 28 25 24 25 24 23 21 17 16 16 15
21 21 20 20 20 19 20 20 20 19 18 19 20 19 20 19 18 18 21 24 25 24 22 22 21 21 21 20 20 22 25 27 28 28 27 26 24 21 21 22 23 23 22 20 21 25 26 26 25 23 22 23 23 23 23 23 24 25 25 25 24 24 26 27 28 29 26 23 24 27 30 32 31 27 25 26 28 27 25 25 26 26 26 25 22 20 19 18
21 20 20 19 18 18 18 19 19 19 18 18 19 19 19 18 17 19 22 24 23 21 20 21 21 22 22 22 23 24 26 27 28 29 29 28 25 23 22 23 23 23 23 22 23 25 26 26 25 23 22 23 22 22 24 25 26 26 26 24 22 23 25 25 25 26 26 26 28 27 31 33 31 28 25 26 28 28 26 26 27 27 27 26 24 22 21 20
19 19 19 18 17 16 17 18 19 18 18 18 19 19 18 18 20 21 23 24 22 20 19 20 22 23 24 24 25 25 25 27 28 29 29 29 27 24 22 22 23 23 23 23 23 24 26 27 26 24 24 24 23 23 26 27 27 27 26 26 23 22 23 23 23 23 23 27 29 28 31 33 31 29 26 26 27 27 27 27 28 28 27 25 24 23 23 23
18 18 18 17 16 16 17 18 18 18 17 17 18 18 18 20 21 22 22 23 21 20 19 20 23 24 25 25 26 26 26 27 28 28 28 28 27 26 24 24 25 25 25 24 24 25 27 26 26 26 26 25 25 25 26 27 27 26 26 25 23 22 22 21 21 21 21 24 27 28 30 33 32 31 29 27 26 27 27 28 28 29 28 27 26 26 28 30
18 17 17 16 16 16 17 17 17 17 16 16 17 17 18 19 20 20 20 20 20 19 19 21 24 25 26 26 27 28 28 28 28 28 27 27 26 25 25 26 28 28 27 26 26 27 27 26 26 27 27 27 28 27 26 26 26 25 24 24 23 23 22 21 19 19 20 21 24 26 29 33 34 33 31 29 28 27 28 28 29 30 29 29 30 31 33 36
17 16 16 16 16 16 15 15 15 15 15 16 16 16 17 18 18 18 18 18 18 18 19 22 25 26 28 28 28 29 30 29 30 30 28 27 26 25 25 27 28 28 28 28 28 28 27 27 27 28 28 29 30 28 27 26 25 25 24 23 23 21 20 20 20 20 20 20 22 24 27 31 34 34 32 30 29 29 30 31 31 31 31 31 32 32 34 37
16 15 14 14 14 14 14 14 14 14 14 15 15 16 16 17 18 18 18 18 18 18 19 22 25 27 29 30 30 30 30 30 31 31 29 28 26 25 26 27 28 27 26 27 27 27 27 26 26 28 29 30 30 29 27 26 25 25 24 24 24 22 21 21 22 21 21 21 22 23 25 28 31 34 33 32 30 30 30 31 32 32 32 31 30 28 28 29
14 13 13 13 13 13 13 13 13 13 13 14 14 15 16 16 17 17 17 18 18 19 20 22 25 27 30 31 32 32 32 31 31 31 30 29 28 27 27 28 28 27 26 25 26 27 26 26 25 27 29 30 30 30 29 28 27 25 25 25 25 24 24 24 24 23 23 23 23 24 25 25 27 30 33 33 32 31 30 30 29 30 31 32 28 25 25 26
12 12 12 12 12 12 12 12 11 12 12 13 13 13 14 15 16 17 17 18 19 21 22 24 25 27 30 32 33 33 33 32 32 31 30 29 29 29 28 28 29 28 27 26 27 28 27 27 26 27 29 30 31 31 30 30 30 29 27 26 25 26 26 27 26 24 23 24 24 25 25 24 25 28 30 32 33 33 32 31 30 30 32 33 32 27 24 23
11 12 12 11 11 11 11 11 11 11 12 12 12 13 14 16 17 18 19 19 21 22 23 25 26 28 30 32 33 34 34 33 33 32 31 30 30 29 29 29 30 30 28 27 28 29 29 28 27 28 29 30 31 32 30 30 32 32 30 27 26 27 28 28 27 25 24 24 25 25 26 25 24 26 28 30 31 32 32 31 30 29 28 30 30 27 23 20
11 12 11 10 10 10 10 10 10 11 11 12 13 14 15 17 18 20 21 21 23 24 24 26 27 28 31 32 34 35 35 35 34 33 32 31 31 30 29 29 29 29 27 27 28 29 28 28 28 28 30 31 31 32 31 30 31 32 31 29 28 28 28 27 27 26 26 25 25 26 26 26 25 26 27 27 27 28 27 27 26 25 26 26 23 20 20 17
11 11 10 9 9 9 9 10 10 11 11 12 13 15 15 16 17 18 19 19 20 22 24 25 26 28 30 32 34 36 37 36 36 35 34 33 32 32 31 30 28 27 25 25 26 27 28 28 28 28 30 31 33 33 32 30 30 31 31 30 29 29 28 28 28 28 27 26 26 26 25 25 25 26 26 25 24 23 22 22 21 21 24 24 21 20 20 19
11 10 9 8 8 9 9 9 9 10 10 12 14 15 15 15 15 16 16 15 16 17 18 20 23 26 29 31 33 35 37 38 38 38 36 34 33 33 33 33 31 27 24 22 23 25 28 28 28 29 31 32 33 33 31 30 30 31 32 31 30 29 29 29 29 29 29 28 27 27 25 24 23 23 25 25 24 24 22 20 19 18 20 21 21 22 22 21
10 9 8 8 8 8 8 8 9 10 10 11 12 13 14 14 15 16 16 15 15 15 15 16 18 21 24 28 31 33 36 37 39 40 39 37 35 33 32 32 32 31 28 24 22 23 25 26 27 29 31 32 33 32 31 30 31 32 32 31 30 29 28 29 29 30 31 30 29 29 26 24 22 22 23 24 25 25 23 21 19 18 18 18 17 16 15 16
9 8 7 7 7 7 7 8 9 10 10 11 12 12 12 13 15 18 19 18 17 16 16 16 17 19 21 23 27 30 33 35 37 40 41 41 40 37 35 33 32 31 30 28 25 23 23 24 26 29 32 33 34 34 32 31 31 32 32 32 30 29 28 28 29 30 31 31 31 31 28 26 24 22 22 23 25 24 23 21 20 18 18 17 14 12 10 9
8 7 7 7 6 6 7 7 8 9 10 11 11 12 12 12 14 17 21 22 21 20 19 19 20 20 21 23 25 28 31 33 35 37 40 42 42 40 39 37 34 31 29 29 28 25 23 23 24 27 29 30 32 34 32 31 31 32 32 32 32 31 30 29 29 30 31 31 32 33 31 29 26 24 23 23 24 23 21 20 19 19 19 18 15 13 10 8
8 7 7 6 4 5 6 6 7 8 9 10 11 11 12 13 14 15 18 21 21 21 20 21 21 22 23 24 25 27 30 32 34 35 38 40 41 40 39 38 38 36 32 30 30 28 24 22 22 24 25 24 26 29 30 31 32 33 33 33 33 32 31 31 30 30 31 31 32 33 33 32 29 27 25 24 23 22 20 19 18 17 17 16 15 14 12 10
8 7 6 4 4 5 6 6 6 7 7 9 10 11 12 13 13 13 13 15 17 17 18 19 20 21 22 23 25 28 30 31 32 34 36 38 39 40 37 32 32 36 37 34 31 28 24 20 19 20 22 22 23 26 28 30 31 33 34 34 34 34 32 31 30 31 31 31 31 32 33 33 32 30 28 27 25 23 20 19 19 17 16 14 13 13 13 12
8 6 4 3 4 6 6 5 6 7 8 9 11 11 12 12 12 11 10 11 13 14 15 15 15 17 19 21 23 26 29 31 31 32 33 35 37 39 37 30 23 26 30 31 31 29 26 22 19 18 19 20 23 24 27 29 31 32 34 35 35 34 33 32 31 31 31 31 31 31 32 32 32 31 31 29 27 24 21 20 20 19 18 17 17 16 16 15
7 6 4 3 5 6 5 5 6 7 8 9 10 11 11 11 10 10 11 12 12 13 13 12 13 14 16 17 19 22 26 28 30 30 30 33 35 37 38 36 31 26 23 23 27 29 28 26 23 20 18 19 21 24 26 27 29 32 34 35 35 34 33 32 32 32 32 32 31 31 32 32 32 31 31 30 28 26 23 21 19 18 18 18 19 19 18 17
Wind_Direction
255 255 255 255 254 254 254 254 253 253 252 252 252 252 253 253 253 253 253 253 253 253 253 253 254 256 257 259 261 262 262 263 263 264 265 266 267 268 269 269 270 271 272 272 273 273 273 274 273 273 273 272 270 269 267 266 265 264 262 260 256 249 236 228 224 223 226 228 229 230 230 230 229 230 230 230 229 226 226 229 232 235 237 241 244 249 253 256
256 256 255 255 254 254 254 253 253 253 253 252 252 252 252 252 253 253 253 253 253 253 253 254 255 257 258 260 261 262 262 263 264 264 265 267 268 269 270 270 270 270 271 271 271 272 273 273 273 272 271 270 269 268 267 265 264 263 260 258 253 241 227 221 218 217 220 223 225 226 227 229 228 229 229 229 230 230 227 228 231 234 236 240 244 248 252 256
256 256 255 255 254 254 254 253 253 253 253 253 252 252 251 251 251 251 252 252 253 253 254 255 256 257 259 260 261 261 262 262 263 265 267 268 269 269 270 271 270 270 270 271 271 272 272 272 271 271 270 269 268 268 266 264 263 261 259 256 248 231 220 216 216 216 216 220 221 222 225 227 228 227 227 227 229 231 229 228 231 234 237 240 244 248 252 257
257 256 256 255 254 254 254 254 253 253 253 253 252 252 252 251 251 251 251 252 253 253 255 256 257 258 258 259 260 260 261 262 263 265 267 268 269 270 271 271 271 271 271 271 271 271 271 271 271 270 269 268 268 266 264 263 261 259 257 253 238 224 216 213 217 215 215 218 218 219 223 225 227 227 227 227 227 229 230 230 231 233 237 241 245 249 253 258
258 257 256 255 255 254 254 254 253 253 253 252 253 253 253 253 252 252 252 252 253 253 254 255 256 257 258 258 259 260 261 262 263 265 266 268 269 270 271 271 271 271 271 271 271 271 271 270 270 269 268 267 265 263 261 261 260 257 255 249 235 223 214 213 218 214 214 218 217 218 221 224 225 225 227 228 228 228 229 230 232 235 239 244 247 251 255 260
260 258 257 256 255 254 254 254 254 253 253 253 253 253 254 254 254 253 253 253 253 253 254 254 255 256 256 257 258 259 260 262 264 265 267 268 270 270 271 272 272 272 271 271 271 271 271 270 269 267 266 264 263 261 260 260 259 256 253 247 235 221 212 214 216 212 214 216 216 218 220 223 224 225 227 228 230 231 230 231 234 238 242 246 249 253 257 261
261 260 258 257 256 255 254 254 254 254 253 253 253 254 254 254 255 254 254 254 254 254 254 254 255 255 256 257 258 258 259 261 263 265 267 269 270 271 272 272 272 272 271 271 271 271 270 270 268 266 264 262 261 260 260 261 260 255 251 246 235 220 210 214 217 213 214 214 215 220 221 222 224 226 228 229 231 233 234 235 237 241 244 248 252 256 260 262
262 261 260 259 257 256 255 255 254 254 254 253 253 253 253 254 254 254 254 254 254 254 255 255 255 255 256 256 257 258 258 260 262 263 265 267 269 270 271 271 271 271 271 271 270 270 269 268 266 264 262 260 260 260 260 262 260 255 250 245 235 220 209 215 219 215 215 213 215 221 221 221 225 228 228 229 232 234 237 238 239 243 247 253 257 260 262 262
261 261 261 261 260 258 256 255 254 253 253 253 253 253 253 253 253 253 253 254 254 254 255 255 255 256 256 256 257 258 258 260 261 262 263 264 266 268 268 269 269 269 269 269 269 268 267 265 263 262 261 261 262 261 262 263 261 257 252 248 239 224 212 216 220 217 217 215 216 221 219 221 227 229 228 229 233 235 237 239 242 246 252 258 262 265 269 269
261 261 261 261 261 260 258 256 255 254 253 253 253 253 253 252 252 252 253 253 254 254 254 255 256 256 256 257 257 258 259 260 261 262 262 263 263 265 266 267 267 267 267 268 267 267 265 264 263 264 263 263 262 261 263 262 261 258 253 250 244 230 217 217 220 219 220 218 218 220 218 221 229 231 230 231 233 235 238 241 245 251 256 262 266 272 276 274
260 260 260 260 260 259 258 257 256 254 253 253 253 252 253 252 252 252 252 253 253 253 254 255 255 256 256 257 257 258 259 260 260 261 261 261 261 261 263 264 265 266 267 267 267 266 265 264 264 263 261 260 260 260 261 260 259 259 255 251 248 237 224 220 221 221 224 222 221 222 221 223 230 233 233 234 235 238 241 244 249 254 259 264 270 277 279 276
260 259 259 259 258 258 257 257 256 255 254 253 253 253 253 253 253 253 253 253 253 253 253 254 254 255 256 257 257 258 259 259 260 260 259 259 259 259 261 264 266 267 267 266 266 265 263 263 262 260 259 258 257 258 259 259 260 261 259 254 249 244 232 225 224 224 226 226 225 227 226 225 230 235 236 237 240 242 245 248 251 255 260 266 273 278 280 279
260 259 259 258 258 257 257 256 256 255 255 254 254 253 253 253 254 254 254 254 254 254 254 254 255 255 257 258 257 258 259 259 259 259 259 259 259 260 261 263 265 265 265 265 265 265 263 262 260 259 259 257 255 256 258 259 258 259 259 256 250 247 239 230 227 225 226 227 228 232 231 228 230 236 238 239 242 245 248 250 252 256 262 268 273 277 279 279
261 260 259 259 258 258 257 256 256 256 256 255 255 254 255 254 255 255 255 255 255 255 256 256 257 257 260 261 258 257 260 260 260 259 259 260 259 259 258 259 261 263 264 265 266 265 264 261 258 257 255 253 253 254 255 255 254 255 255 254 247 243 238 232 230 228 227 226 228 233 235 231 230 235 239 240 242 244 247 248 250 254 260 268 274 277 279 278
262 261 260 260 260 259 258 257 257 257 257 257 256 256 256 256 256 256 257 257 257 258 258 259 260 259 262 264 260 259 260 260 260 260 259 259 258 256 256 256 258 260 261 263 263 262 262 260 256 253 250 250 250 249 250 251 252 252 252 250 244 238 231 229 232 231 229 228 228 232 236 234 231 234 239 240 241 243 244 244 245 247 251 266 277 279 278 274
263 262 261 261 261 260 259 257 257 257 257 257 257 256 256 257 257 258 259 259 259 260 260 261 262 261 262 263 260 260 261 260 260 260 259 258 256 255 255 256 256 257 258 259 261 261 261 258 252 249 247 246 246 246 246 247 250 251 251 248 245 240 229 228 233 234 232 231 232 234 237 236 232 233 237 240 241 242 243 241 240 240 248 267 278 277 272 265
263 262 261 261 260 260 259 258 257 257 257 256 255 255 256 257 259 259 260 260 260 260 260 261 260 260 260 260 259 259 260 260 259 258 259 257 256 255 255 255 255 256 258 259 260 260 260 255 250 247 244 241 241 244 245 246 248 250 251 248 245 242 232 230 234 236 236 235 236 238 239 239 236 235 239 241 242 243 242 241 240 241 251 265 272 271 266 255
262 262 261 260 260 259 258 258 257 257 256 255 255 255 256 258 259 259 259 260 260 259 258 258 258 258 259 259 258 258 258 259 259 258 258 257 256 255 254 253 254 255 257 259 259 259 258 253 249 244 240 239 241 243 245 245 245 248 251 249 245 240 233 230 232 235 237 235 237 240 242 242 239 237 241 244 245 245 245 244 243 245 251 260 266 265 257 248
263 262 261 260 259 258 258 257 257 257 256 255 255 257 258 258 258 258 259 260 260 259 257 257 258 259 260 260 259 259 259 260 261 260 258 256 256 255 255 254 254 254 256 257 256 256 256 253 249 244 239 240 244 245 244 242 243 246 250 250 245 239 233 230 230 233 235 235 235 238 241 243 241 238 240 244 246 247 248 248 247 247 250 256 262 260 252 245
262 262 261 260 259 258 257 257 257 257 257 257 257 258 259 260 259 259 260 260 260 261 260 260 260 261 263 262 260 260 260 260 261 261 258 257 256 255 254 254 254 254 255 255 255 254 254 253 249 242 239 241 243 244 244 244 245 245 246 248 246 240 233 232 234 234 236 237 237 239 241 243 243 241 241 244 246 248 250 251 251 252 254 258 260 256 249 244
262 261 261 260 258 257 257 257 257 257 258 259 260 260 260 261 261 261 261 262 262 262 263 263 260 259 262 263 261 260 261 263 263 261 260 258 256 254 252 252 253 254 254 253 253 253 253 253 248 240 238 240 240 242 245 247 248 246 245 246 247 244 235 234 238 237 239 241 240 242 245 244 243 243 244 247 249 250 252 254 256 257 258 257 255 251 249 243
261 261 260 259 257 256 256 256 256 257 258 260 261 262 261 260 260 261 262 264 266 263 261 261 260 259 261 262 262 261 260 262 261 259 259 256 253 251 250 250 251 251 251 251 251 251 252 252 246 239 237 237 238 242 246 247 248 248 247 244 245 246 238 232 238 241 243 245 243 245 248 246 244 243 245 247 250 251 253 256 258 257 255 251 248 248 249 244
260 260 258 257 256 255 255 255 256 257 258 260 261 262 261 260 260 261 262 265 267 265 261 260 261 262 262 260 260 259 257 257 257 257 256 253 250 248 248 248 248 248 249 251 251 250 249 246 240 235 233 234 237 242 244 246 248 249 249 245 242 245 241 234 237 243 246 248 246 245 247 246 243 241 242 245 248 251 253 254 253 250 246 243 243 243 243 239
259 258 256 255 254 252 253 254 255 256 258 260 261 260 260 261 261 262 263 263 264 265 265 264 261 260 261 259 259 259 257 255 253 253 251 247 244 243 244 244 245 248 249 248 248 248 245 239 233 229 228 231 235 239 243 247 249 250 251 247 241 242 243 237 237 241 245 249 248 247 247 242 236 237 241 245 248 250 251 250 248 245 243 241 240 239 239 237
256 255 253 252 251 250 251 252 254 256 258 259 259 260 260 262 264 264 264 262 261 262 264 265 264 260 259 259 258 257 256 254 248 246 245 242 240 240 241 242 244 247 248 245 244 244 238 232 231 226 226 232 234 238 243 247 250 251 252 248 239 237 239 238 238 240 243 248 249 248 247 239 231 235 241 246 248 246 246 245 243 244 245 243 240 239 240 240
252 250 249 249 249 249 249 252 254 255 257 258 259 260 261 263 265 264 262 261 260 259 260 262 264 262 258 256 254 253 254 250 239 240 241 235 235 238 238 240 242 243 245 245 244 241 232 228 230 226 227 231 232 236 242 246 248 248 245 241 235 233 235 238 240 240 239 242 243 247 249 241 231 236 240 242 242 240 237 236 238 241 243 241 238 237 239 238
248 247 247 247 249 250 250 251 254 256 257 258 259 260 261 263 264 263 263 262 261 259 259 260 261 262 261 259 257 254 250 242 233 236 236 228 230 236 237 240 241 240 242 244 245 240 228 226 228 227 228 230 231 236 239 240 241 240 238 235 232 230 232 235 237 238 237 236 237 242 249 246 234 234 239 239 234 229 226 227 232 238 242 242 238 235 233 232
246 246 246 246 249 251 252 252 253 255 256 257 259 260 261 263 263 263 262 262 262 261 260 260 259 261 261 260 258 253 245 237 229 228 227 223 225 231 234 236 235 235 238 239 238 232 223 223 225 226 227 228 232 236 237 236 237 238 236 234 232 230 231 234 237 239 239 237 235 237 245 248 241 236 238 238 227 217 215 221 230 236 241 243 240 235 231 230
247 247 247 247 249 252 253 253 252 254 255 256 257 259 262 263 262 262 261 261 260 259 259 259 259 258 257 256 255 249 241 234 227 225 225 223 225 230 232 232 229 231 234 233 229 227 226 225 224 225 226 227 231 234 235 236 238 239 238 235 235 234 234 236 238 239 241 240 236 237 242 244 243 240 237 234 219 210 215 225 228 232 236 238 238 237 235 236
247 248 248 248 249 252 255 254 253 254 256 256 256 259 261 262 261 260 260 259 258 257 257 257 257 255 253 253 251 244 239 234 227 225 225 222 223 228 229 230 230 233 236 232 225 225 228 227 226 227 227 227 231 234 236 236 238 241 241 240 240 239 239 240 241 241 242 243 238 237 239 238 241 240 236 230 215 210 220 227 225 226 227 228 231 236 238 240
249 250 251 252 252 254 256 256 255 255 256 256 256 257 259 259 259 259 258 257 257 254 252 251 250 248 247 248 245 240 236 233 228 225 222 220 223 225 228 231 232 236 241 238 229 228 229 228 230 230 229 230 233 236 238 238 240 243 244 244 243 242 241 242 243 243 244 243 235 231 230 233 239 238 232 227 216 213 220 221 219 220 220 223 229 234 238 242
251 253 255 255 254 255 256 257 256 255 254 255 255 255 255 254 255 256 253 253 253 250 248 248 245 242 241 240 239 236 233 230 228 223 218 218 219 221 225 229 231 235 239 236 229 231 231 229 230 230 229 231 233 237 239 240 242 243 243 243 241 240 242 243 244 245 246 241 232 226 222 226 236 236 228 224 219 219 221 218 217 219 220 223 230 235 237 239
254 256 257 255 254 253 254 256 255 254 252 252 253 252 252 252 251 250 248 249 250 250 249 247 243 239 237 235 233 231 230 230 227 220 214 214 212 210 212 216 219 224 227 224 222 226 228 227 228 228 228 229 233 236 238 239 240 241 241 239 237 238 241 244 246 248 247 240 233 226 218 222 232 234 228 221 220 222 222 220 222 223 225 228 234 240 239 238
255 257 256 254 253 252 252 253 254 253 250 249 251 251 252 252 248 244 245 248 250 249 247 246 243 239 236 233 230 229 229 231 231 224 217 213 209 207 209 213 215 219 222 221 219 223 226 224 223 223 224 226 229 231 232 233 235 237 237 236 235 237 239 242 244 247 246 239 234 226 217 221 229 232 229 221 219 223 225 226 228 230 233 236 240 243 241 240
255 255 254 254 253 251 249 250 251 252 251 250 251 253 252 250 246 243 245 249 250 248 244 244 243 240 235 231 231 230 230 232 235 233 228 220 211 207 211 217 219 221 223 223 221 222 225 224 221 218 220 222 223 224 227 231 234 236 239 240 239 238 238 239 242 245 245 242 238 228 218 221 227 229 229 224 220 223 228 230 234 239 240 241 243 243 242 241
253 254 254 254 253 251 249 250 252 253 253 252 252 253 251 249 247 247 248 251 252 248 244 242 242 241 236 231 230 231 230 232 236 237 237 233 223 215 215 220 223 223 222 222 221 220 222 222 221 219 220 221 222 224 226 230 234 237 242 244 241 238 238 241 244 244 244 243 240 233 222 221 225 228 228 227 224 223 227 232 236 241 243 244 244 243 239 236
252 253 254 254 253 253 251 251 252 253 253 251 250 250 249 250 251 251 250 251 251 247 243 240 241 242 239 234 230 229 227 231 236 237 237 237 232 224 220 221 226 226 223 221 219 219 218 216 218 221 220 221 223 224 227 230 232 234 237 237 237 239 240 244 248 247 245 242 239 236 228 222 224 227 228 229 227 225 227 231 235 240 245 250 254 255 251 243
251 252 253 254 254 253 251 250 250 250 251 251 250 249 250 250 251 251 250 249 248 244 240 239 239 241 241 238 234 230 228 229 234 237 237 238 236 231 225 223 227 229 228 226 223 221 217 213 215 220 220 222 224 224 226 229 230 229 228 228 231 236 240 243 247 248 248 244 240 237 232 227 226 229 231 232 230 229 228 230 234 240 246 252 261 265 261 252
250 252 252 252 251 249 248 247 248 249 250 252 252 252 251 251 252 252 251 249 246 240 237 236 237 239 240 240 238 236 233 232 234 237 238 239 240 237 231 227 227 228 230 232 231 228 221 214 215 219 220 222 223 222 222 223 223 224 224 225 227 229 230 234 240 244 246 246 245 242 237 233 231 231 234 235 235 235 233 234 237 241 246 252 259 263 256 247
249 249 247 246 246 245 246 247 249 250 251 251 252 252 254 255 256 256 255 252 248 242 237 234 235 236 238 239 239 240 240 238 238 238 238 239 239 239 236 232 229 228 229 231 234 233 226 217 215 219 220 220 220 220 217 215 217 220 223 225 227 227 226 229 234 239 242 243 245 245 242 239 237 237 237 238 241 241 240 242 245 249 252 250 251 255 251 244
244 242 240 239 241 243 244 245 247 249 249 251 253 254 257 259 260 259 256 252 249 245 241 237 234 234 236 238 238 240 242 242 240 240 241 241 241 240 238 235 232 229 227 228 231 232 228 220 216 218 219 218 219 220 218 214 216 220 222 224 227 227 227 230 234 240 244 246 246 248 247 244 242 241 241 241 244 245 248 252 256 259 258 252 251 253 251 242
235 235 234 234 236 239 242 245 247 248 249 252 256 258 259 261 263 262 258 254 250 247 244 241 237 234 235 237 237 237 240 243 243 242 243 243 242 241 239 236 234 231 228 228 230 231 229 222 217 217 219 219 221 223 221 217 218 221 223 224 228 229 231 233 235 239 244 248 250 251 252 250 247 245 245 245 247 250 254 257 260 263 260 257 257 250 241 236
230 229 228 228 230 233 238 243 247 250 254 259 262 265 266 266 266 264 261 257 253 250 246 244 241 237 235 235 235 236 237 240 242 243 244 244 243 243 240 236 235 234 231 229 231 232 230 224 219 218 220 221 222 224 224 221 221 223 226 227 229 232 234 234 235 237 241 245 248 251 254 255 254 252 250 252 253 255 258 259 263 264 256 255 258 245 230 231
225 223 222 222 226 232 240 247 253 259 266 272 275 276 276 274 271 267 265 260 256 254 252 249 246 243 239 236 235 234 235 237 239 240 242 243 244 245 245 241 236 235 233 232 232 233 230 226 222 221 222 222 224 226 226 225 224 226 227 228 230 232 234 235 234 236 239 243 245 249 254 257 259 256 253 253 254 255 259 261 264 263 253 250 256 248 237 237
220 217 214 218 227 238 247 255 263 269 274 278 280 282 282 279 273 268 266 262 258 257 256 254 251 248 245 242 237 235 234 235 236 238 239 241 243 244 245 246 245 242 240 237 234 233 233 229 225 224 226 227 228 230 230 229 229 229 229 230 230 232 235 236 236 237 239 242 244 246 250 255 259 258 254 253 253 256 262 265 264 257 249 250 252 243 236 236
214 212 213 221 233 243 252 262 269 273 276 278 281 285 287 282 271 264 261 258 257 257 257 258 257 253 250 247 242 239 236 234 235 236 237 239 242 242 241 244 248 249 248 247 241 238 239 237 230 228 230 230 231 232 232 232 232 232 232 232 233 234 236 238 239 240 240 242 244 245 247 249 253 255 255 254 255 258 261 263 263 259 256 261 258 244 231 222
207 209 218 229 237 248 262 272 278 283 287 287 287 290 293 286 272 262 256 254 255 256 258 262 264 262 257 252 247 242 238 236 234 235 236 237 239 242 243 244 248 251 251 250 248 245 245 244 238 234 236 235 232 230 231 232 233 234 234 234 235 236 237 239 241 242 242 243 244 246 247 247 247 250 253 253 254 256 258 259 262 263 264 270 270 263 250 220
202 210 221 232 241 256 269 276 283 288 291 292 295 296 298 296 284 267 256 253 254 256 260 266 269 268 263 257 251 245 239 236 234 233 235 236 237 240 243 245 247 249 251 252 253 252 251 248 244 241 243 242 232 227 230 233 234 235 236 236 236 237 238 240 242 245 246 245 246 247 249 249 248 248 251 252 251 252 254 258 261 263 266 268 266 264 261 237
200 210 222 233 247 262 270 278 284 289 293 296 300 302 304 304 297 279 261 254 254 256 261 267 271 271 266 259 253 247 240 236 233 232 232 234 236 236 240 245 248 249 251 253 253 254 253 250 245 242 245 244 233 227 230 234 236 237 238 239 239 240 240 241 244 247 249 249 249 249 250 250 248 247 250 252 251 251 254 258 262 264 265 263 256 255 256 247
198 209 218 230 256 266 271 279 288 297 305 309 310 312 313 313 308 292 268 256 254 257 260 266 270 271 268 261 253 247 242 236 232 230 230 232 234 235 236 243 248 248 247 247 247 249 249 246 242 240 241 241 237 233 234 237 239 240 240 241 242 242 242 242 244 247 251 253 253 252 251 251 250 250 251 253 253 255 259 262 264 265 263 257 250 251 256 257
194 202 208 226 258 268 275 288 304 318 324 322 320 318 318 322 320 304 282 267 262 260 259 265 273 275 270 263 254 246 241 236 231 228 228 229 231 233 232 232 235 239 239 238 239 241 242 242 240 239 240 241 240 238 237 238 240 241 241 240 240 242 242 242 243 246 250 254 256 256 255 253 252 253 254 255 256 258 262 266 268 267 265 262 260 262 264 264
188 192 199 230 261 278 295 307 319 332 331 324 319 316 320 327 326 310 292 282 277 270 265 268 277 278 269 259 252 246 240 236 231 227 226 226 227 229 231 231 231 236 237 233 234 239 242 245 245 243 244 244 242 241 241 240 241 242 243 240 239 240 241 242 242 244 247 252 256 258 258 257 256 258 258 258 258 260 262 265 266 264 264 263 262 262 263 261
Height
5742 5743 5744 5744 5745 5746 5747 5747 5748 5749 5750 5751 5751 5752 5753 5754 5755 5756 5756 5757 5758 5758 5759 5760 5762 5762 5763 5764 5765 5766 5767 5767 5767 5768 5768 5769 5770 5769 5770 5771 5771 5772 5772 5772 5773 5773 5773 5774 5774 5774 5774 5774 5774 5775 5775 5775 5776 5777 5777 5778 5780 5782 5783 5783 5783 5783 5783 5785 5787 5788 5788 5789 5790 5791 5793 5794 5794 5795 5796 5798 5799 5800 5801 5801 5802 5803 5804 5805
5739 5740 5740 5741 5742 5743 5743 5744 5745 5746 5747 5747 5748 5749 5750 5751 5751 5752 5753 5754 5754 5755 5756 5757 5758 5759 5760 5760 5761 5762 5763 5763 5764 5764 5765 5766 5766 5766 5766 5768 5768 5768 5769 5769 5770 5770 5770 5770 5771 5771 5771 5771 5771 5771 5772 5772 5773 5774 5774 5775 5777 5779 5780 5780 5780 5780 5780 5782 5784 5785 5786 5786 5787 5789 5790 5791 5792 5793 5794 5795 5796 5797 5798 5798 5799 5800 5802 5803
5736 5737 5737 5738 5739 5740 5740 5741 5742 5743 5743 5744 5745 5746 5747 5747 5748 5749 5750 5750 5751 5752 5753 5754 5754 5755 5756 5757 5758 5759 5759 5760 5760 5761 5762 5762 5763 5763 5763 5764 5765 5765 5766 5766 5766 5767 5767 5767 5767 5767 5768 5768 5768 5768 5768 5769 5770 5770 5771 5773 5775 5777 5777 5777 5777 5777 5777 5779 5781 5782 5783 5783 5784 5786 5787 5789 5790 5791 5792 5793 5794 5795 5795 5796 5797 5798 5799 5800
5733 5733 5734 5735 5736 5736 5737 5738 5739 5739 5740 5741 5742 5743 5744 5744 5745 5746 5747 5747 5748 5748 5749 5750 5751 5752 5753 5754 5755 5755 5756 5757 5757 5758 5759 5759 5759 5759 5760 5761 5761 5762 5762 5763 5763 5763 5764 5764 5764 5764 5764 5765 5765 5765 5765 5766 5767 5767 5768 5770 5772 5773 5773 5774 5774 5774 5775 5776 5778 5779 5780 5781 5781 5783 5784 5785 5787 5788 5789 5790 5791 5792 5792 5794 5795 5797 5798 5799
5729 5730 5731 5732 5733 5733 5734 5735 5735 5736 5737 5738 5739 5740 5740 5741 5742 5743 5743 5744 5744 5745 5746 5747 5748 5749 5750 5751 5751 5752 5753 5753 5754 5755 5755 5756 5756 5756 5757 5758 5758 5758 5759 5760 5760 5760 5760 5761 5761 5761 5761 5762 5762 5762 5762 5763 5763 5764 5765 5767 5769 5770 5771 5772 5772 5772 5773 5774 5775 5776 5777 5778 5779 5780 5781 5783 5784 5785 5787 5787 5788 5789 5791 5792 5794 5795 5796 5798
5726 5727 5728 5729 5730 5730 5731 5732 5732 5733 5734 5735 5736 5736 5737 5738 5739 5740 5740 5741 5741 5742 5743 5744 5745 5746 5747 5748 5748 5749 5750 5750 5751 5752 5752 5753 5753 5753 5754 5755 5755 5755 5756 5756 5757 5757 5757 5758 5758 5758 5758 5758 5758 5758 5759 5760 5760 5761 5762 5764 5766 5767 5769 5769 5769 5770 5770 5771 5772 5773 5774 5775 5776 5778 5779 5781 5782 5783 5784 5785 5787 5788 5790 5791 5792 5793 5794 5796
5723 5724 5725 5725 5726 5727 5728 5728 5729 5730 5731 5732 5732 5733 5734 5735 5736 5737 5737 5738 5738 5739 5740 5741 5741 5742 5744 5745 5745 5746 5746 5747 5748 5749 5749 5750 5750 5751 5751 5752 5752 5752 5753 5753 5753 5754 5754 5754 5755 5755 5755 5755 5755 5755 5756 5757 5757 5758 5760 5762 5763 5764 5766 5766 5766 5766 5767 5769 5770 5771 5773 5774 5775 5776 5778 5779 5780 5781 5783 5784 5786 5787 5788 5789 5790 5791 5793 5794
5720 5721 5721 5722 5723 5724 5725 5725 5726 5727 5728 5728 5729 5730 5731 5732 5733 5733 5734 5735 5735 5736 5737 5737 5738 5739 5740 5741 5742 5743 5743 5744 5745 5746 5746 5747 5747 5748 5748 5748 5749 5749 5750 5750 5750 5751 5751 5751 5751 5751 5752 5752 5752 5752 5753 5754 5754 5756 5758 5759 5760 5761 5763 5763 5763 5764 5766 5768 5769 5770 5772 5773 5773 5774 5776 5777 5779 5781 5782 5783 5785 5786 5787 5788 5789 5790 5791 5792
5717 5718 5718 5719 5720 5721 5721 5722 5723 5724 5724 5725 5726 5727 5728 5729 5729 5730 5731 5732 5732 5733 5733 5734 5735 5736 5737 5738 5739 5739 5740 5741 5742 5742 5743 5744 5744 5744 5745 5745 5746 5746 5746 5747 5747 5748 5748 5748 5748 5748 5749 5749 5750 5750 5750 5751 5752 5754 5756 5756 5758 5759 5761 5760 5761 5763 5765 5767 5768 5769 5771 5772 5771 5771 5774 5776 5778 5779 5781 5782 5783 5785 5786 5787 5788 5788 5790 5791
5714 5714 5715 5716 5717 5717 5718 5719 5719 5720 5721 5722 5723 5723 5724 5725 5726 5727 5728 5728 5729 5730 5730 5731 5732 5733 5734 5734 5735 5735 5737 5738 5738 5739 5740 5740 5741 5741 5741 5742 5742 5743 5743 5744 5744 5745 5745 5744 5745 5746 5746 5747 5747 5747 5748 5749 5750 5751 5753 5754 5756 5758 5759 5759 5761 5763 5764 5766 5767 5768 5771 5771 5769 5770 5773 5775 5776 5778 5779 5781 5782 5784 5785 5785 5787 5788 5789 5789
5711 5711 5712 5713 5714 5714 5715 5716 5716 5717 5718 5719 5719 5720 5721 5722 5723 5724 5724 5725 5726 5726 5727 5727 5728 5729 5730 5731 5732 5732 5734 5734 5735 5736 5736 5737 5738 5738 5738 5739 5739 5740 5740 5741 5741 5742 5742 5742 5742 5743 5744 5744 5745 5745 5745 5746 5747 5749 5750 5752 5754 5756 5757 5758 5760 5763 5763 5765 5766 5767 5769 5768 5767 5768 5771 5773 5775 5776 5778 5780 5781 5782 5783 5784 5785 5786 5786 5786
5707 5708 5709 5709 5710 5711 5712 5712 5713 5714 5715 5715 5716 5717 5718 5719 5720 5720 5721 5722 5722 5723 5723 5724 5725 5726 5727 5727 5728 5729 5730 5731 5731 5732 5732 5733 5734 5734 5735 5736 5736 5737 5737 5737 5738 5738 5738 5739 5740 5740 5741 5742 5742 5743 5743 5744 5745 5746 5748 5751 5752 5753 5756 5758 5759 5761 5761 5763 5765 5764 5765 5767 5767 5768 5770 5772 5773 5775 5777 5778 5780 5781 5782 5782 5783 5783 5783 5784
5703 5704 5705 5706 5707 5707 5708 5709 5710 5711 5711 5712 5713 5714 5715 5716 5716 5717 5718 5718 5719 5720 5720 5721 5722 5723 5723 5723 5724 5726 5727 5727 5728 5728 5729 5729 5730 5732 5733 5733 5733 5734 5734 5734 5735 5736 5736 5737 5737 5737 5738 5740 5740 5740 5741 5742 5744 5745 5746 5748 5750 5751 5754 5756 5756 5757 5759 5761 5762 5761 5761 5764 5766 5767 5768 5770 5772 5774 5775 5777 5778 5779 5779 5780 5781 5781 5781 5782
5700 5701 5701 5702 5703 5704 5704 5705 5706 5707 5708 5708 5709 5710 5711 5712 5713 5713 5714 5715 5715 5716 5717 5718 5718 5719 5720 5719 5720 5723 5723 5723 5724 5725 5726 5726 5727 5728 5729 5730 5730 5730 5731 5731 5733 5733 5733 5734 5734 5735 5736 5737 5738 5738 5739 5740 5741 5743 5744 5746 5748 5749 5751 5753 5753 5754 5755 5757 5759 5757 5757 5761 5765 5765 5765 5767 5770 5772 5773 5775 5776 5777 5777 5778 5779 5779 5780 5781
5696 5697 5698 5698 5699 5700 5701 5702 5702 5703 5704 5704 5705 5706 5707 5708 5709 5710 5710 5711 5712 5713 5713 5714 5715 5716 5716 5716 5717 5718 5719 5720 5721 5721 5723 5723 5724 5724 5725 5726 5727 5727 5727 5728 5729 5730 5730 5731 5732 5733 5734 5735 5736 5736 5737 5738 5739 5741 5742 5744 5745 5746 5748 5749 5749 5750 5752 5754 5754 5753 5752 5756 5761 5762 5762 5764 5767 5768 5770 5772 5773 5774 5775 5775 5776 5777 5779 5780
5693 5693 5694 5695 5696 5696 5697 5698 5698 5699 5699 5700 5701 5702 5703 5704 5705 5706 5707 5707 5708 5709 5710 5711 5711 5712 5713 5712 5713 5714 5715 5717 5718 5718 5719 5719 5719 5720 5722 5723 5723 5724 5724 5725 5726 5726 5728 5729 5729 5730 5731 5733 5734 5734 5735 5736 5737 5738 5739 5741 5742 5744 5746 5746 5746 5748 5749 5750 5750 5749 5749 5752 5757 5758 5758 5760 5763 5764 5767 5769 5771 5771 5772 5773 5775 5776 5777 5778
5689 5690 5691 5691 5692 5693 5694 5694 5695 5695 5695 5696 5697 5698 5700 5701 5701 5702 5703 5703 5704 5705 5706 5707 5707 5708 5708 5709 5710 5711 5711 5712 5714 5714 5715 5715 5715 5717 5718 5719 5720 5721 5721 5722 5723 5724 5725 5726 5727 5728 5729 5730 5732 5732 5733 5735 5736 5736 5737 5739 5740 5742 5744 5744 5745 5745 5746 5747 5747 5746 5746 5749 5753 5756 5756 5758 5759 5761 5764 5767 5768 5769 5770 5771 5773 5774 5776 5776
5686 5687 5687 5688 5689 5690 5690 5691 5691 5691 5692 5692 5693 5695 5697 5698 5698 5699 5699 5700 5701 5701 5702 5703 5703 5704 5704 5705 5706 5707 5708 5708 5709 5711 5711 5711 5712 5714 5715 5716 5717 5718 5718 5720 5720 5721 5722 5723 5724 5725 5726 5728 5729 5730 5731 5733 5733 5733 5734 5736 5738 5740 5741 5743 5743 5743 5743 5743 5743 5743 5744 5746 5751 5754 5754 5755 5756 5758 5761 5764 5765 5767 5768 5769 5771 5772 5773 5773
5682 5683 5684 5685 5685 5686 5687 5687 5688 5688 5688 5689 5690 5692 5693 5694 5695 5695 5696 5696 5697 5698 5698 5699 5700 5701 5701 5702 5703 5704 5705 5705 5706 5707 5707 5707 5709 5710 5711 5713 5714 5714 5715 5716 5717 5718 5719 5720 5720 5722 5725 5726 5727 5728 5729 5730 5730 5731 5732 5733 5735 5737 5739 5741 5741 5740 5739 5739 5740 5741 5742 5744 5747 5751 5752 5752 5752 5754 5757 5760 5762 5764 5766 5767 5769 5770 5770 5771
5679 5679 5680 5681 5682 5683 5683 5684 5684 5685 5684 5685 5687 5689 5689 5690 5691 5691 5692 5693 5693 5694 5695 5696 5698 5698 5698 5699 5700 5701 5701 5702 5703 5703 5703 5704 5705 5707 5708 5710 5710 5711 5712 5713 5713 5715 5716 5716 5718 5720 5723 5724 5724 5725 5726 5727 5728 5729 5730 5731 5733 5735 5738 5739 5739 5738 5736 5736 5738 5739 5740 5742 5745 5748 5749 5749 5749 5751 5754 5756 5759 5762 5764 5765 5767 5767 5768 5769
5675 5676 5677 5677 5678 5679 5680 5680 5681 5681 5681 5682 5684 5685 5686 5686 5687 5687 5688 5689 5689 5691 5692 5693 5694 5695 5695 5695 5696 5698 5698 5699 5699 5699 5700 5701 5702 5704 5705 5706 5707 5708 5709 5709 5710 5711 5712 5713 5716 5719 5720 5721 5721 5722 5723 5724 5725 5726 5727 5729 5731 5733 5736 5737 5736 5735 5733 5734 5736 5737 5738 5740 5743 5746 5746 5746 5746 5748 5752 5754 5756 5759 5761 5762 5763 5764 5765 5767
5671 5672 5673 5673 5674 5675 5676 5676 5677 5678 5678 5679 5680 5681 5682 5682 5683 5683 5685 5686 5686 5687 5689 5689 5690 5692 5691 5691 5693 5694 5695 5696 5695 5695 5697 5698 5699 5700 5701 5703 5704 5704 5705 5705 5706 5708 5709 5711 5715 5716 5717 5717 5718 5719 5720 5721 5722 5724 5725 5727 5729 5732 5734 5734 5734 5732 5731 5732 5735 5736 5736 5738 5742 5744 5744 5743 5743 5746 5749 5752 5754 5756 5757 5758 5760 5761 5763 5765
5668 5669 5669 5670 5671 5672 5673 5673 5674 5674 5675 5676 5677 5677 5678 5678 5679 5680 5682 5684 5683 5683 5685 5686 5687 5688 5687 5688 5689 5689 5690 5692 5692 5692 5694 5695 5696 5697 5698 5700 5700 5701 5701 5702 5704 5705 5707 5710 5712 5713 5713 5714 5715 5716 5717 5718 5720 5722 5723 5724 5727 5730 5730 5732 5732 5730 5729 5730 5733 5734 5734 5737 5741 5742 5741 5740 5741 5743 5747 5749 5751 5752 5753 5755 5757 5758 5760 5762
5664 5665 5666 5666 5667 5668 5669 5670 5670 5671 5671 5672 5673 5674 5674 5675 5676 5678 5680 5681 5680 5680 5681 5682 5683 5684 5682 5683 5684 5684 5686 5688 5688 5688 5691 5692 5692 5693 5695 5696 5697 5698 5699 5700 5701 5702 5705 5707 5708 5708 5709 5711 5712 5714 5715 5717 5718 5719 5720 5722 5725 5727 5727 5729 5729 5727 5726 5728 5731 5732 5731 5735 5738 5738 5738 5738 5739 5742 5744 5746 5747 5748 5749 5752 5754 5756 5758 5759
5661 5662 5662 5663 5664 5665 5666 5666 5667 5668 5668 5669 5670 5670 5671 5671 5673 5675 5676 5677 5677 5677 5678 5678 5678 5679 5679 5679 5681 5681 5682 5684 5685 5686 5688 5689 5689 5690 5692 5693 5694 5696 5697 5698 5698 5700 5702 5704 5704 5705 5707 5709 5710 5712 5713 5715 5716 5717 5719 5720 5722 5723 5724 5725 5725 5723 5725 5727 5728 5728 5729 5732 5735 5735 5735 5736 5737 5739 5741 5742 5744 5745 5747 5750 5752 5754 5756 5757
5658 5659 5659 5660 5660 5661 5663 5663 5664 5665 5665 5666 5667 5667 5667 5668 5670 5671 5672 5673 5674 5674 5674 5674 5674 5674 5675 5676 5677 5677 5678 5681 5682 5682 5684 5686 5686 5688 5689 5690 5692 5694 5694 5695 5696 5697 5700 5701 5702 5703 5705 5707 5709 5710 5712 5713 5714 5716 5717 5717 5718 5720 5721 5722 5721 5721 5723 5724 5724 5725 5726 5729 5733 5733 5733 5733 5735 5737 5738 5740 5741 5743 5745 5747 5750 5752 5754 5755
5655 5656 5656 5657 5657 5658 5659 5661 5661 5662 5662 5663 5664 5664 5664 5665 5667 5668 5668 5669 5670 5671 5670 5671 5671 5671 5672 5673 5674 5675 5676 5678 5679 5679 5681 5683 5684 5685 5686 5688 5690 5691 5692 5693 5693 5696 5699 5699 5699 5701 5703 5705 5707 5708 5709 5710 5712 5713 5714 5714 5715 5717 5717 5717 5717 5717 5719 5720 5721 5723 5723 5726 5730 5730 5730 5731 5732 5734 5736 5738 5739 5741 5743 5745 5748 5750 5752 5753
5652 5653 5653 5654 5654 5655 5656 5658 5658 5659 5659 5660 5660 5660 5661 5663 5664 5664 5665 5666 5667 5667 5667 5667 5668 5668 5670 5671 5671 5672 5673 5674 5675 5676 5677 5679 5680 5681 5683 5685 5687 5689 5689 5690 5691 5694 5695 5695 5697 5699 5700 5702 5705 5706 5706 5708 5710 5710 5710 5711 5712 5713 5713 5714 5714 5715 5716 5717 5719 5722 5722 5724 5727 5727 5728 5729 5731 5733 5735 5737 5738 5740 5742 5744 5746 5748 5750 5751
5649 5649 5650 5651 5652 5652 5653 5654 5655 5655 5656 5657 5657 5657 5658 5660 5661 5661 5662 5663 5663 5663 5663 5664 5665 5666 5667 5668 5668 5670 5670 5671 5672 5672 5674 5676 5678 5679 5681 5683 5684 5685 5686 5687 5689 5691 5692 5693 5695 5696 5698 5701 5702 5702 5704 5706 5707 5707 5708 5709 5709 5710 5711 5711 5712 5713 5713 5714 5719 5721 5720 5722 5723 5725 5726 5728 5729 5732 5734 5735 5737 5738 5740 5742 5745 5747 5748 5749
5646 5646 5647 5648 5649 5649 5650 5651 5652 5652 5653 5654 5655 5655 5656 5657 5657 5658 5659 5660 5660 5660 5661 5661 5662 5664 5665 5665 5666 5667 5667 5668 5669 5669 5671 5674 5675 5676 5678 5679 5681 5682 5683 5685 5687 5689 5690 5691 5692 5694 5697 5699 5700 5700 5702 5704 5704 5705 5706 5707 5707 5708 5709 5710 5710 5711 5710 5713 5719 5720 5718 5719 5720 5722 5725 5726 5727 5730 5732 5734 5735 5737 5739 5741 5743 5745 5746 5747
5643 5643 5644 5645 5646 5646 5647 5647 5648 5649 5650 5651 5652 5652 5653 5654 5654 5655 5656 5656 5656 5657 5658 5658 5660 5661 5662 5663 5663 5664 5665 5665 5666 5668 5670 5671 5672 5673 5675 5677 5679 5680 5682 5684 5686 5687 5688 5689 5691 5694 5696 5697 5697 5698 5700 5702 5702 5703 5704 5705 5705 5706 5707 5707 5708 5708 5709 5713 5718 5717 5715 5716 5717 5720 5723 5724 5726 5728 5730 5732 5733 5735 5738 5739 5741 5743 5744 5745
5640 5640 5641 5642 5643 5643 5644 5644 5645 5646 5647 5648 5648 5649 5650 5651 5651 5653 5653 5653 5653 5654 5655 5656 5658 5659 5660 5660 5661 5661 5662 5663 5664 5666 5667 5669 5670 5672 5674 5675 5677 5678 5680 5683 5685 5685 5686 5688 5690 5692 5694 5695 5695 5697 5698 5699 5700 5701 5702 5702 5703 5704 5705 5705 5705 5706 5708 5713 5715 5713 5712 5713 5715 5718 5721 5722 5724 5727 5729 5730 5732 5734 5736 5738 5739 5741 5742 5743
5637 5637 5638 5639 5640 5640 5641 5641 5642 5643 5645 5645 5645 5646 5647 5648 5649 5650 5650 5649 5650 5651 5653 5654 5656 5656 5657 5658 5659 5659 5660 5661 5662 5664 5665 5666 5668 5669 5671 5672 5674 5675 5677 5680 5682 5682 5683 5685 5688 5690 5692 5693 5694 5695 5696 5697 5698 5699 5700 5700 5701 5702 5702 5703 5704 5705 5707 5710 5710 5710 5710 5711 5713 5716 5719 5721 5722 5724 5727 5728 5730 5732 5734 5736 5738 5739 5740 5740
5634 5635 5635 5636 5637 5638 5639 5639 5639 5641 5642 5642 5643 5643 5644 5646 5647 5647 5646 5646 5648 5650 5652 5652 5653 5654 5655 5657 5657 5657 5658 5659 5660 5661 5663 5664 5666 5667 5669 5670 5671 5673 5675 5677 5679 5680 5681 5683 5685 5688 5689 5690 5692 5693 5694 5695 5695 5696 5697 5698 5699 5700 5701 5702 5702 5703 5705 5706 5706 5707 5708 5709 5712 5714 5717 5719 5721 5723 5725 5727 5729 5731 5732 5734 5736 5736 5737 5737
5631 5632 5632 5633 5635 5636 5636 5636 5637 5638 5639 5639 5640 5641 5642 5643 5643 5643 5644 5644 5646 5648 5650 5650 5651 5652 5653 5655 5655 5656 5657 5658 5658 5659 5661 5662 5664 5665 5667 5668 5670 5671 5673 5675 5676 5678 5680 5681 5683 5685 5686 5688 5689 5691 5691 5692 5693 5694 5695 5696 5698 5699 5699 5699 5700 5701 5702 5702 5703 5704 5706 5708 5711 5713 5715 5718 5720 5722 5724 5726 5727 5729 5730 5732 5733 5733 5734 5733
5629 5629 5630 5631 5632 5633 5634 5634 5634 5635 5636 5637 5638 5638 5639 5640 5640 5641 5642 5643 5644 5646 5648 5648 5648 5649 5651 5652 5653 5654 5656 5656 5657 5657 5659 5661 5662 5664 5665 5666 5667 5668 5670 5672 5674 5676 5677 5679 5681 5682 5684 5685 5687 5688 5689 5690 5692 5693 5693 5695 5697 5697 5697 5697 5698 5699 5700 5700 5701 5702 5704 5707 5709 5711 5714 5716 5718 5721 5722 5724 5725 5725 5726 5728 5728 5728 5728 5727
5627 5627 5628 5629 5630 5630 5631 5632 5632 5632 5633 5634 5635 5636 5636 5637 5638 5639 5640 5641 5643 5644 5645 5646 5646 5646 5648 5650 5651 5652 5653 5654 5655 5656 5657 5658 5660 5662 5663 5664 5665 5666 5668 5669 5670 5672 5675 5677 5679 5680 5682 5683 5684 5685 5687 5688 5690 5691 5692 5694 5694 5694 5695 5696 5696 5697 5697 5698 5699 5700 5702 5705 5707 5709 5712 5714 5717 5719 5720 5721 5722 5722 5724 5725 5725 5725 5724 5724
5624 5625 5626 5627 5627 5628 5629 5629 5630 5630 5631 5632 5633 5633 5634 5635 5635 5636 5637 5638 5640 5642 5643 5643 5644 5644 5645 5647 5648 5650 5651 5652 5652 5653 5655 5656 5658 5660 5662 5663 5663 5665 5666 5667 5668 5669 5672 5675 5676 5678 5679 5680 5681 5683 5685 5686 5687 5689 5690 5691 5691 5692 5693 5694 5694 5695 5696 5696 5697 5699 5701 5703 5705 5707 5710 5712 5714 5716 5718 5718 5719 5720 5721 5722 5722 5722 5722 5721
5623 5624 5624 5625 5625 5626 5626 5627 5627 5628 5629 5630 5630 5631 5632 5632 5633 5634 5635 5636 5637 5639 5640 5640 5641 5642 5642 5644 5645 5647 5649 5650 5650 5651 5653 5655 5657 5658 5660 5661 5662 5663 5664 5665 5666 5668 5670 5673 5674 5675 5677 5678 5679 5681 5683 5684 5685 5686 5687 5688 5689 5690 5691 5691 5692 5693 5694 5695 5695 5697 5698 5701 5703 5705 5708 5710 5712 5714 5715 5716 5716 5717 5718 5719 5719 5719 5718 5717
5621 5622 5622 5623 5623 5624 5624 5625 5626 5626 5627 5628 5628 5629 5629 5630 5630 5632 5633 5634 5635 5636 5636 5637 5638 5639 5639 5641 5643 5644 5646 5647 5648 5649 5651 5652 5654 5655 5657 5658 5659 5660 5661 5663 5664 5666 5668 5671 5672 5672 5674 5676 5677 5678 5680 5681 5683 5684 5685 5686 5687 5688 5689 5690 5690 5691 5692 5693 5694 5695 5696 5699 5702 5704 5706 5708 5709 5711 5712 5713 5715 5716 5716 5716 5716 5716 5715 5715
5619 5620 5621 5621 5621 5622 5623 5623 5624 5625 5625 5626 5626 5627 5627 5628 5628 5629 5630 5631 5632 5632 5633 5634 5635 5636 5636 5638 5640 5641 5643 5644 5646 5647 5649 5650 5651 5652 5654 5655 5656 5657 5658 5660 5661 5663 5665 5668 5670 5670 5671 5673 5674 5676 5678 5679 5681 5681 5682 5684 5685 5686 5687 5688 5689 5690 5691 5691 5692 5693 5694 5697 5699 5701 5703 5705 5707 5708 5710 5711 5713 5713 5713 5712 5712 5712 5713 5714
5618 5618 5619 5619 5620 5620 5621 5622 5622 5623 5624 5624 5624 5625 5625 5625 5626 5626 5627 5628 5628 5629 5630 5630 5632 5633 5633 5635 5637 5639 5640 5641 5643 5644 5646 5647 5649 5650 5651 5652 5653 5654 5656 5658 5659 5660 5662 5665 5668 5668 5669 5670 5672 5673 5675 5677 5678 5679 5680 5682 5683 5684 5685 5686 5687 5688 5689 5690 5691 5691 5692 5694 5696 5698 5700 5702 5704 5706 5707 5708 5710 5710 5709 5709 5708 5709 5711 5712
5616 5616 5617 5618 5618 5619 5620 5620 5621 5622 5622 5622 5622 5622 5623 5623 5623 5624 5624 5625 5625 5625 5626 5627 5628 5629 5630 5631 5633 5635 5637 5638 5640 5641 5643 5644 5646 5648 5649 5650 5650 5652 5654 5656 5657 5658 5660 5663 5665 5666 5666 5668 5669 5671 5673 5675 5676 5677 5678 5680 5681 5682 5683 5685 5686 5687 5687 5688 5689 5690 5690 5692 5694 5696 5698 5699 5701 5703 5704 5705 5706 5707 5706 5706 5706 5707 5708 5709
5614 5615 5616 5617 5617 5618 5618 5619 5620 5620 5620 5620 5620 5620 5620 5620 5621 5621 5621 5621 5622 5622 5623 5624 5625 5626 5627 5628 5629 5631 5633 5635 5637 5638 5640 5642 5643 5645 5646 5647 5648 5650 5652 5653 5655 5656 5658 5660 5662 5664 5664 5665 5667 5668 5670 5672 5674 5675 5676 5677 5679 5680 5681 5682 5684 5685 5685 5686 5687 5688 5689 5690 5692 5693 5695 5697 5699 5700 5701 5702 5703 5704 5703 5704 5705 5705 5705 5706
5613 5614 5615 5615 5616 5617 5617 5618 5618 5618 5618 5618 5618 5618 5618 5618 5618 5618 5618 5618 5619 5619 5619 5620 5621 5622 5623 5624 5626 5628 5629 5631 5633 5635 5637 5639 5640 5642 5643 5644 5645 5647 5649 5650 5652 5653 5655 5657 5659 5661 5661 5663 5664 5666 5668 5671 5672 5673 5674 5675 5676 5678 5679 5680 5681 5683 5683 5684 5685 5686 5688 5689 5690 5691 5693 5695 5696 5697 5699 5699 5700 5700 5701 5702 5702 5702 5701 5702
5612 5613 5613 5614 5615 5615 5616 5616 5617 5617 5617 5617 5616 5616 5615 5615 5615 5615 5615 5616 5616 5616 5617 5617 5618 5618 5619 5620 5622 5624 5625 5627 5629 5631 5633 5636 5637 5639 5640 5641 5642 5644 5646 5648 5650 5651 5652 5654 5656 5657 5658 5660 5662 5664 5666 5668 5670 5671 5672 5673 5674 5676 5677 5678 5679 5680 5681 5682 5683 5684 5686 5687 5688 5689 5691 5693 5694 5695 5696 5697 5697 5697 5698 5699 5699 5699 5699 5700
5611 5612 5612 5613 5614 5614 5615 5615 5615 5615 5615 5615 5615 5614 5613 5613 5612 5612 5612 5613 5613 5614 5614 5614 5615 5615 5616 5617 5617 5619 5621 5623 5625 5626 5629 5631 5634 5635 5637 5638 5640 5642 5644 5646 5647 5649 5650 5651 5653 5654 5655 5656 5658 5661 5663 5665 5667 5668 5670 5671 5672 5674 5675 5676 5677 5678 5679 5680 5681 5682 5684 5685 5686 5688 5690 5691 5692 5693 5694 5695 5695 5696 5696 5697 5698 5698 5699 5700
5610 5611 5611 5612 5613 5613 5613 5613 5613 5613 5613 5613 5613 5612 5611 5611 5610 5609 5609 5609 5610 5610 5611 5611 5612 5612 5613 5613 5614 5615 5616 5618 5620 5622 5624 5626 5630 5632 5634 5635 5638 5640 5641 5643 5645 5647 5648 5649 5650 5651 5652 5652 5654 5657 5660 5662 5664 5665 5667 5669 5670 5671 5672 5673 5675 5675 5676 5678 5679 5680 5682 5683 5685 5686 5688 5689 5690 5691 5693 5693 5694 5694 5695 5696 5697 5697 5698 5699
5609 5610 5611 5611 5612 5612 5612 5612 5612 5612 5612 5611 5611 5610 5609 5608 5607 5606 5606 5606 5607 5607 5608 5608 5608 5608 5609 5609 5610 5610 5611 5613 5615 5618 5620 5622 5626 5628 5631 5633 5635 5637 5639 5641 5642 5644 5646 5647 5648 5649 5649 5650 5651 5654 5657 5658 5660 5662 5664 5666 5667 5668 5669 5671 5672 5673 5673 5674 5676 5677 5679 5681 5682 5684 5686 5687 5688 5689 5691 5692 5692 5693 5694 5694 5695 5696 5697 5698
5608 5609 5610 5611 5611 5611 5611 5611 5611 5611 5610 5610 5609 5608 5607 5605 5604 5603 5603 5603 5604 5604 5605 5605 5605 5605 5605 5605 5605 5606 5606 5608 5611 5614 5616 5619 5622 5625 5628 5631 5632 5634 5635 5637 5639 5641 5643 5645 5646 5646 5647 5648 5650 5652 5654 5655 5657 5659 5660 5662 5664 5665 5666 5668 5669 5670 5670 5671 5673 5675 5676 5678 5680 5682 5683 5684 5686 5687 5689 5690 5691 5692 5692 5693 5694 5695 5696 5697
5608 5608 5609 5610 5610 5610 5610 5610 5610 5609 5608 5607 5606 5606 5605 5604 5602 5602 5601 5601 5601 5601 5602 5602 5602 5602 5601 5601 5601 5601 5602 5604 5607 5610 5613 5616 5618 5621 5624 5628 5629 5631 5632 5633 5636 5638 5640 5642 5643 5644 5645 5646 5647 5649 5650 5652 5653 5655 5656 5658 5660 5661 5663 5665 5666 5667 5668 5669 5670 5671 5673 5675 5677 5679 5680 5682 5683 5685 5686 5687 5689 5690 5690 5691 5692 5693 5694 5695
5607 5608 5609 5609 5609 5609 5609 5609 5608 5607 5607 5606 5605 5604 5603 5602 5601 5600 5600 5599 5599 5599 5599 5599 5599 5598 5598 5598 5598 5598 5599 5601 5604 5607 5609 5611 5614 5617 5620 5623 5626 5627 5629 5631 5633 5635 5637 5639 5641 5642 5643 5643 5645 5646 5647 5649 5650 5651 5652 5653 5655 5657 5659 5661 5663 5664 5665 5666 5667 5668 5669 5671 5674 5676 5678 5679 5681 5682 5683 5685 5686 5687 5688 5689 5690 5691 5692 5693